Location: Bodest
(46.3000°N, 22.5667°E)
Time: 00:24:36
(UTC+00:00)

FENGYUN 1C DEB - Pass Details

Date: 10 April 2023
Orbit: 806 x 916 km, 98.8° (Epoch: 29 May)

Event Time Altitude Azimuth Distance (km) Brightness Sun altitude
Rises 18:50:34 0° 194° (SSW) 3,527 ? -16.8°
Reaches altitude 10° 18:53:18 10° 205° (SSW) 2,581 ? -17.2°
Maximum altitude 18:58:18 30° 265° (W) 1,543 ? -18.0°
Drops below altitude 10° 19:03:15 10° 326° (NW) 2,542 ? -18.7°
Sets 19:05:56 0° 337° (NNW) 3,467 ? -19.0°
